AFL5065 UWOR-UWWW

Flight info

Callsign AFL5065
Flight time 1h 14m
Altitude 34000
Route LALEP5C LALEP T750 UDATA UDATA2F
Aircraft B738/M-SDE2E3FGHIRWXY/LB1

Departure

Time 2026-04-24 11:50
Airport Orsk Airport (UWOR)

Arrival

Time 2026-04-24 13:04
Airport Kurumoch International Airport (UWWW)
Time Latitude Longitude Altitude Speed Heading
2026-04-24 11:15 51.07553 58.59352 895 ft 0 kts 77°
2026-04-24 11:43 51.07554 58.59358 895 ft 2 kts 77°
2026-04-24 11:43 51.07552 58.59398 895 ft 5 kts 124°
2026-04-24 11:44 51.07518 58.59426 895 ft 7 kts 165°
2026-04-24 11:44 51.07460 58.59448 895 ft 10 kts 167°
2026-04-24 11:44 51.07386 58.59476 897 ft 7 kts 166°
2026-04-24 11:44 51.07352 58.59490 898 ft 6 kts 166°
2026-04-24 11:45 51.07304 58.59509 898 ft 9 kts 166°
2026-04-24 11:45 51.07237 58.59473 895 ft 13 kts 247°
2026-04-24 11:45 51.07215 58.59333 898 ft 13 kts 257°
2026-04-24 11:45 51.07194 58.59191 899 ft 14 kts 257°
2026-04-24 11:46 51.07171 58.59036 902 ft 14 kts 256°
2026-04-24 11:46 51.07149 58.58887 908 ft 14 kts 256°
2026-04-24 11:46 51.07134 58.58792 909 ft 13 kts 257°
2026-04-24 11:46 51.07112 58.58637 910 ft 15 kts 257°
2026-04-24 11:47 51.07089 58.58469 912 ft 16 kts 256°
2026-04-24 11:47 51.07061 58.58282 913 ft 19 kts 257°
2026-04-24 11:47 51.07017 58.58002 910 ft 21 kts 257°
2026-04-24 11:47 51.06992 58.57836 912 ft 23 kts 256°
2026-04-24 11:48 51.06977 58.57701 912 ft 6 kts 270°
2026-04-24 11:48 51.06995 58.57638 919 ft 6 kts 308°
2026-04-24 11:48 51.06994 58.57576 914 ft 7 kts 223°
2026-04-24 11:48 51.06958 58.57600 914 ft 8 kts 91°
2026-04-24 11:49 51.06963 58.57645 918 ft 1 kts 76°
2026-04-24 11:49 51.06974 58.57719 911 ft 24 kts 76°
2026-04-24 11:49 51.07072 58.58375 911 ft 96 kts 76°
2026-04-24 11:49 51.07282 58.59752 897 ft 157 kts 72°
2026-04-24 11:50 51.07567 58.61565 1401 ft 168 kts 75°
2026-04-24 11:50 51.07796 58.63358 2263 ft 168 kts 76°
2026-04-24 11:50 51.08046 58.65304 2614 ft 191 kts 76°
2026-04-24 11:50 51.08335 58.67440 3090 ft 204 kts 78°
2026-04-24 11:51 51.08648 58.69730 3454 ft 222 kts 79°
2026-04-24 11:51 51.08785 58.72222 3798 ft 229 kts 105°
2026-04-24 11:51 51.08042 58.74404 4177 ft 226 kts 144°
2026-04-24 11:51 51.06678 58.75477 4715 ft 216 kts 178°
2026-04-24 11:52 51.05252 58.75211 5463 ft 202 kts 207°
2026-04-24 11:52 51.04160 58.73905 6208 ft 198 kts 232°
2026-04-24 11:52 51.03623 58.71915 6830 ft 206 kts 257°
2026-04-24 11:52 51.03805 58.69602 7467 ft 221 kts 283°
2026-04-24 11:53 51.04723 58.67505 8055 ft 240 kts 303°
2026-04-24 11:53 51.05892 58.65560 8606 ft 246 kts 303°
2026-04-24 11:53 51.07090 58.63584 9192 ft 250 kts 303°
2026-04-24 11:53 51.08147 58.61434 9692 ft 245 kts 285°
2026-04-24 11:54 51.08850 58.58880 9890 ft 262 kts 281°
2026-04-24 11:54 51.09572 58.56075 10061 ft 285 kts 282°
2026-04-24 11:54 51.10358 58.53051 10236 ft 306 kts 283°
2026-04-24 11:54 51.11203 58.49854 10387 ft 327 kts 284°
2026-04-24 11:55 51.12117 58.46446 10708 ft 339 kts 285°
2026-04-24 11:55 51.13064 58.42971 11304 ft 343 kts 285°
2026-04-24 11:55 51.14020 58.39479 11981 ft 345 kts 284°
2026-04-24 11:55 51.14981 58.35962 12663 ft 347 kts 284°
2026-04-24 11:56 51.15947 58.32419 13348 ft 349 kts 284°
2026-04-24 11:56 51.16918 58.28847 13989 ft 352 kts 284°
2026-04-24 11:56 51.17877 58.25308 14635 ft 353 kts 284°
2026-04-24 11:56 51.18853 58.21703 15309 ft 354 kts 284°
2026-04-24 11:57 51.19829 58.18088 15988 ft 356 kts 284°
2026-04-24 11:57 51.20809 58.14456 16669 ft 357 kts 284°
2026-04-24 11:57 51.21790 58.10808 17320 ft 359 kts 284°
2026-04-24 11:57 51.22777 58.07133 17963 ft 361 kts 284°
2026-04-24 11:58 51.23768 58.03438 18503 ft 363 kts 284°
2026-04-24 11:58 51.24766 57.99712 18995 ft 366 kts 284°
2026-04-24 11:58 51.25771 57.95955 19498 ft 369 kts 284°
2026-04-24 11:58 51.26781 57.92169 20025 ft 373 kts 283°
2026-04-24 11:59 51.27806 57.88384 20510 ft 378 kts 284°
2026-04-24 11:59 51.28896 57.84552 21088 ft 380 kts 285°
2026-04-24 11:59 51.30008 57.80697 21631 ft 383 kts 285°
2026-04-24 11:59 51.31124 57.76799 22063 ft 388 kts 284°
2026-04-24 12:00 51.32248 57.72848 22583 ft 390 kts 284°
2026-04-24 12:00 51.33375 57.68863 23064 ft 393 kts 284°
2026-04-24 12:00 51.34485 57.64914 23572 ft 395 kts 284°
2026-04-24 12:00 51.35610 57.60897 24003 ft 396 kts 284°
2026-04-24 12:01 51.36736 57.56869 24395 ft 398 kts 284°
2026-04-24 12:01 51.37869 57.52808 24781 ft 400 kts 284°
2026-04-24 12:01 51.39009 57.48718 25168 ft 402 kts 284°
2026-04-24 12:01 51.40151 57.44614 25558 ft 405 kts 284°
2026-04-24 12:02 51.41300 57.40480 25909 ft 408 kts 284°
2026-04-24 12:02 51.42454 57.36321 26310 ft 409 kts 284°
2026-04-24 12:02 51.43609 57.32153 26711 ft 410 kts 284°
2026-04-24 12:02 51.44757 57.28003 27067 ft 412 kts 284°
2026-04-24 12:03 51.45919 57.23794 27412 ft 414 kts 284°
2026-04-24 12:03 51.47084 57.19563 27765 ft 415 kts 284°
2026-04-24 12:03 51.48254 57.15311 28090 ft 417 kts 284°
2026-04-24 12:03 51.49425 57.11047 28422 ft 418 kts 284°
2026-04-24 12:04 51.50597 57.06771 28815 ft 418 kts 284°
2026-04-24 12:04 51.51766 57.02506 29321 ft 415 kts 284°
2026-04-24 12:04 51.52908 56.98336 29916 ft 412 kts 284°
2026-04-24 12:04 51.54058 56.94127 30411 ft 407 kts 283°
2026-04-24 12:05 51.55189 56.89969 30784 ft 407 kts 283°
2026-04-24 12:05 51.56325 56.85773 31009 ft 409 kts 283°
2026-04-24 12:05 51.57458 56.81582 31332 ft 409 kts 283°
2026-04-24 12:05 51.58588 56.77404 31754 ft 406 kts 283°
2026-04-24 12:06 51.59712 56.73248 32154 ft 404 kts 283°
2026-04-24 12:06 51.60829 56.69108 32508 ft 403 kts 283°
2026-04-24 12:06 51.61942 56.64970 32822 ft 403 kts 283°
2026-04-24 12:06 51.63051 56.60839 33140 ft 402 kts 283°
2026-04-24 12:07 51.64232 56.56745 33463 ft 405 kts 285°
2026-04-24 12:07 51.65488 56.52746 33781 ft 405 kts 287°
2026-04-24 12:07 51.68109 56.44592 33814 ft 412 kts 287°
2026-04-24 12:08 51.70719 56.36399 33803 ft 405 kts 286°
2026-04-24 12:08 51.73238 56.28380 33820 ft 402 kts 286°
2026-04-24 12:09 51.75764 56.20284 33814 ft 405 kts 286°
2026-04-24 12:09 51.78299 56.12136 33815 ft 407 kts 286°
2026-04-24 12:10 51.80838 56.03938 33821 ft 408 kts 286°
2026-04-24 12:11 51.84622 55.91673 33817 ft 408 kts 285°
2026-04-24 12:11 51.87148 55.83448 33813 ft 408 kts 285°
2026-04-24 12:12 51.89666 55.75223 33813 ft 408 kts 285°
2026-04-24 12:12 51.92180 55.66982 33803 ft 407 kts 285°
2026-04-24 12:13 51.94688 55.58728 33811 ft 409 kts 285°
2026-04-24 12:13 51.97195 55.50450 33806 ft 409 kts 285°
2026-04-24 12:14 51.99689 55.42189 33805 ft 410 kts 285°
2026-04-24 12:14 52.02200 55.33843 33801 ft 411 kts 285°
2026-04-24 12:15 52.04711 55.25469 33801 ft 412 kts 285°
2026-04-24 12:15 52.07201 55.17136 33814 ft 414 kts 286°
2026-04-24 12:16 52.09721 55.08666 33795 ft 416 kts 286°
2026-04-24 12:16 52.12244 55.00165 33775 ft 418 kts 286°
2026-04-24 12:17 52.14772 54.91615 33796 ft 419 kts 286°
2026-04-24 12:17 52.17281 54.83096 33782 ft 421 kts 286°
2026-04-24 12:18 52.19816 54.74462 33770 ft 422 kts 286°
2026-04-24 12:18 52.22350 54.65796 33783 ft 424 kts 286°
2026-04-24 12:19 52.24886 54.57093 33768 ft 425 kts 286°
2026-04-24 12:19 52.27419 54.48371 33765 ft 426 kts 286°
2026-04-24 12:20 52.29937 54.39669 33768 ft 426 kts 286°
2026-04-24 12:20 52.32476 54.30902 33760 ft 427 kts 287°
2026-04-24 12:21 52.35177 54.22188 33754 ft 430 kts 288°
2026-04-24 12:21 52.37921 54.13487 33756 ft 430 kts 288°
2026-04-24 12:22 52.40623 54.04824 33751 ft 430 kts 288°
2026-04-24 12:22 52.43329 53.96067 33745 ft 430 kts 288°
2026-04-24 12:23 52.46021 53.87312 33740 ft 430 kts 288°
2026-04-24 12:23 52.48702 53.78555 33781 ft 430 kts 288°
2026-04-24 12:24 52.51386 53.69756 33747 ft 431 kts 288°
2026-04-24 12:24 52.54071 53.60928 33736 ft 432 kts 288°
2026-04-24 12:25 52.56731 53.52153 33736 ft 432 kts 288°
2026-04-24 12:25 52.59403 53.43299 33731 ft 432 kts 288°
2026-04-24 12:26 52.62068 53.34438 33753 ft 432 kts 289°
2026-04-24 12:26 52.64719 53.25595 33741 ft 432 kts 289°
2026-04-24 12:27 52.67376 53.16695 33720 ft 433 kts 289°
2026-04-24 12:27 52.70017 53.07819 33722 ft 433 kts 288°
2026-04-24 12:28 52.72670 52.98868 33248 ft 433 kts 288°
2026-04-24 12:28 52.73988 52.94427 32819 ft 426 kts 288°
2026-04-24 12:28 52.75278 52.90063 32456 ft 421 kts 288°
2026-04-24 12:28 52.76556 52.85722 31986 ft 417 kts 288°
2026-04-24 12:29 52.77820 52.81426 31549 ft 414 kts 287°
2026-04-24 12:29 52.79069 52.77175 31116 ft 410 kts 287°
2026-04-24 12:29 52.80306 52.72955 30713 ft 406 kts 287°
2026-04-24 12:29 52.81533 52.68763 30303 ft 403 kts 287°
2026-04-24 12:30 52.82746 52.64607 29925 ft 400 kts 287°
2026-04-24 12:30 52.83932 52.60536 29457 ft 397 kts 287°
2026-04-24 12:30 52.85124 52.56435 28983 ft 393 kts 287°
2026-04-24 12:30 52.86301 52.52388 28584 ft 388 kts 287°
2026-04-24 12:31 52.87464 52.48381 28172 ft 383 kts 287°
2026-04-24 12:31 52.88610 52.44422 27776 ft 379 kts 287°
2026-04-24 12:31 52.89743 52.40496 27355 ft 376 kts 287°
2026-04-24 12:31 52.90867 52.36598 26957 ft 372 kts 287°
2026-04-24 12:32 52.91975 52.32748 26553 ft 369 kts 287°
2026-04-24 12:32 52.93075 52.28921 26164 ft 365 kts 287°
2026-04-24 12:32 52.94151 52.25172 25781 ft 362 kts 287°
2026-04-24 12:32 52.95228 52.21411 25397 ft 360 kts 287°
2026-04-24 12:33 52.96297 52.17674 25022 ft 357 kts 287°
2026-04-24 12:33 52.97356 52.13963 24649 ft 354 kts 287°
2026-04-24 12:33 52.98406 52.10283 24279 ft 352 kts 287°
2026-04-24 12:33 52.99098 52.07854 24030 ft 350 kts 287°
2026-04-24 12:34 53.00481 52.02992 23542 ft 347 kts 287°
2026-04-24 12:34 53.01509 51.99373 23164 ft 345 kts 287°
2026-04-24 12:34 53.02526 51.95786 22776 ft 341 kts 287°
2026-04-24 12:34 53.03193 51.93432 22530 ft 339 kts 287°
2026-04-24 12:35 53.04515 51.88758 22026 ft 334 kts 287°
2026-04-24 12:35 53.05181 51.86401 21787 ft 333 kts 287°
2026-04-24 12:35 53.06476 51.81806 21318 ft 329 kts 288°
2026-04-24 12:35 53.07115 51.79532 21069 ft 327 kts 288°
2026-04-24 12:36 53.08073 51.76122 20730 ft 325 kts 288°
2026-04-24 12:36 53.09348 51.71571 20255 ft 325 kts 288°
2026-04-24 12:36 53.09980 51.69313 20010 ft 325 kts 288°
2026-04-24 12:36 53.10943 51.65858 19669 ft 332 kts 288°
2026-04-24 12:37 53.11926 51.62330 19308 ft 337 kts 289°
2026-04-24 12:37 53.12914 51.58791 18935 ft 336 kts 289°
2026-04-24 12:37 53.13894 51.55283 18568 ft 333 kts 289°
2026-04-24 12:37 53.14864 51.51799 18211 ft 330 kts 289°
2026-04-24 12:38 53.15826 51.48341 17853 ft 328 kts 289°
2026-04-24 12:38 53.16782 51.44898 17450 ft 326 kts 289°
2026-04-24 12:38 53.17716 51.41523 17086 ft 323 kts 289°
2026-04-24 12:39 53.20497 51.31446 16026 ft 315 kts 289°
2026-04-24 12:39 53.21407 51.28136 15675 ft 312 kts 289°
2026-04-24 12:39 53.22307 51.24856 15348 ft 310 kts 288°
2026-04-24 12:40 53.23201 51.21594 15013 ft 308 kts 288°
2026-04-24 12:40 53.24079 51.18387 14683 ft 306 kts 288°
2026-04-24 12:40 53.24961 51.15157 14331 ft 305 kts 288°
2026-04-24 12:40 53.25837 51.11946 14007 ft 303 kts 288°
2026-04-24 12:41 53.26710 51.08743 13675 ft 302 kts 288°
2026-04-24 12:41 53.27578 51.05554 13341 ft 301 kts 288°
2026-04-24 12:41 53.28441 51.02377 13000 ft 299 kts 288°
2026-04-24 12:41 53.29303 50.99199 12645 ft 301 kts 288°
2026-04-24 12:42 53.30170 50.95992 12307 ft 304 kts 288°
2026-04-24 12:42 53.31048 50.92739 11967 ft 309 kts 288°
2026-04-24 12:42 53.31941 50.89430 11623 ft 313 kts 288°
2026-04-24 12:42 53.32835 50.86122 11275 ft 311 kts 288°
2026-04-24 12:43 53.33723 50.82833 10926 ft 309 kts 288°
2026-04-24 12:43 53.34607 50.79555 10585 ft 308 kts 288°
2026-04-24 12:43 53.35472 50.76339 10249 ft 306 kts 288°
2026-04-24 12:43 53.36343 50.73098 10001 ft 301 kts 288°
2026-04-24 12:44 53.37191 50.69941 9873 ft 293 kts 288°
2026-04-24 12:44 53.38015 50.66867 9745 ft 286 kts 288°
2026-04-24 12:44 53.38817 50.63868 9625 ft 278 kts 288°
2026-04-24 12:44 53.39604 50.60912 9365 ft 277 kts 288°
2026-04-24 12:45 53.40386 50.57974 9082 ft 276 kts 288°
2026-04-24 12:45 53.41166 50.55039 8815 ft 275 kts 288°
2026-04-24 12:45 53.41946 50.52105 8521 ft 275 kts 288°
2026-04-24 12:45 53.42722 50.49183 8241 ft 274 kts 288°
2026-04-24 12:46 53.43486 50.46300 7954 ft 273 kts 288°
2026-04-24 12:46 53.44256 50.43395 7656 ft 272 kts 288°
2026-04-24 12:46 53.45023 50.40496 7393 ft 271 kts 288°
2026-04-24 12:46 53.45787 50.37605 7120 ft 271 kts 288°
2026-04-24 12:47 53.46549 50.34713 6840 ft 270 kts 288°
2026-04-24 12:47 53.47308 50.31833 6636 ft 268 kts 288°
2026-04-24 12:47 53.48057 50.28993 6590 ft 263 kts 287°
2026-04-24 12:47 53.48786 50.26235 6570 ft 252 kts 287°
2026-04-24 12:48 53.49481 50.23596 6560 ft 241 kts 287°
2026-04-24 12:48 53.50136 50.21106 6564 ft 231 kts 286°
2026-04-24 12:48 53.50777 50.18659 6565 ft 227 kts 286°
2026-04-24 12:48 53.51624 50.16314 6598 ft 246 kts 306°
2026-04-24 12:49 53.53065 50.14584 6590 ft 265 kts 334°
2026-04-24 12:49 53.54815 50.13492 6591 ft 269 kts 336°
2026-04-24 12:49 53.56568 50.12426 6590 ft 267 kts 336°
2026-04-24 12:49 53.58290 50.11379 6580 ft 264 kts 338°
2026-04-24 12:50 53.60104 50.11050 6560 ft 264 kts 14°
2026-04-24 12:50 53.61677 50.12515 6600 ft 261 kts 52°
2026-04-24 12:50 53.62526 50.15123 6588 ft 252 kts 85°
2026-04-24 12:50 53.62504 50.17960 6583 ft 238 kts 114°
2026-04-24 12:51 53.61730 50.20290 6588 ft 223 kts 140°
2026-04-24 12:51 53.60478 50.21702 6595 ft 214 kts 164°
2026-04-24 12:51 53.59028 50.22036 6576 ft 210 kts 186°
2026-04-24 12:51 53.57621 50.21409 6576 ft 211 kts 206°
2026-04-24 12:52 53.56463 50.19895 6601 ft 212 kts 218°
2026-04-24 12:52 53.55326 50.18300 6587 ft 213 kts 216°
2026-04-24 12:52 53.54110 50.16976 6560 ft 211 kts 193°
2026-04-24 12:52 53.52669 50.17136 6598 ft 212 kts 167°
2026-04-24 12:53 53.51252 50.17869 6591 ft 213 kts 167°
2026-04-24 12:53 53.49753 50.18114 6604 ft 223 kts 182°
2026-04-24 12:53 53.48205 50.18586 6581 ft 234 kts 156°
2026-04-24 12:53 53.46973 50.20453 6574 ft 251 kts 127°
2026-04-24 12:54 53.46404 50.23282 6405 ft 265 kts 99°
2026-04-24 12:54 53.46732 50.26341 6321 ft 270 kts 69°
2026-04-24 12:54 53.47888 50.28790 6283 ft 269 kts 39°
2026-04-24 12:54 53.49586 50.30062 6130 ft 274 kts
2026-04-24 12:55 53.51483 50.29915 5921 ft 281 kts 344°
2026-04-24 12:55 53.53389 50.29027 5683 ft 286 kts 340°
2026-04-24 12:55 53.55292 50.28041 5418 ft 286 kts 340°
2026-04-24 12:55 53.57190 50.27038 5153 ft 285 kts 340°
2026-04-24 12:56 53.59080 50.26024 4896 ft 285 kts 340°
2026-04-24 12:56 53.60974 50.24999 4651 ft 285 kts 340°
2026-04-24 12:56 53.62837 50.23983 4394 ft 285 kts 340°
2026-04-24 12:56 53.64727 50.22941 4126 ft 285 kts 340°
2026-04-24 12:57 53.66608 50.21897 3954 ft 281 kts 340°
2026-04-24 12:57 53.68437 50.20881 3943 ft 271 kts 340°
2026-04-24 12:57 53.70215 50.19893 3932 ft 268 kts 340°
2026-04-24 12:57 53.71982 50.18880 3870 ft 268 kts 334°
2026-04-24 12:58 53.73468 50.17108 3634 ft 265 kts 304°
2026-04-24 12:58 53.74256 50.14412 3419 ft 250 kts 274°
2026-04-24 12:58 53.74149 50.11604 3195 ft 233 kts 243°
2026-04-24 12:58 53.73242 50.09486 2984 ft 219 kts 212°
2026-04-24 12:59 53.71856 50.08626 2773 ft 212 kts 184°
2026-04-24 12:59 53.70377 50.08518 2570 ft 214 kts 180°
2026-04-24 12:59 53.68892 50.08474 2379 ft 212 kts 180°
2026-04-24 12:59 53.67447 50.08434 2191 ft 206 kts 180°
2026-04-24 13:00 53.66066 50.08463 2084 ft 191 kts 171°
2026-04-24 13:00 53.64828 50.09052 1954 ft 179 kts 161°
2026-04-24 13:00 53.63705 50.09737 1895 ft 163 kts 161°
2026-04-24 13:00 53.62694 50.10352 1879 ft 149 kts 161°
2026-04-24 13:01 53.61743 50.10924 1893 ft 141 kts 161°
2026-04-24 13:01 53.60836 50.11468 1919 ft 138 kts 161°
2026-04-24 13:01 53.59943 50.12003 1899 ft 135 kts 161°
2026-04-24 13:01 53.59044 50.12541 1829 ft 139 kts 161°
2026-04-24 13:02 53.58140 50.13083 1670 ft 139 kts 161°
2026-04-24 13:02 53.57242 50.13621 1485 ft 134 kts 161°
2026-04-24 13:02 53.56357 50.14152 1320 ft 137 kts 162°
2026-04-24 13:02 53.55444 50.14697 1124 ft 141 kts 162°
2026-04-24 13:03 53.54522 50.15256 996 ft 138 kts 160°
2026-04-24 13:03 53.53608 50.15812 762 ft 144 kts 159°
2026-04-24 13:03 53.52655 50.16374 604 ft 147 kts 160°
2026-04-24 13:03 53.51683 50.16952 423 ft 148 kts 159°
2026-04-24 13:04 53.50810 50.17474 410 ft 115 kts 160°
2026-04-24 13:04 53.50193 50.17841 412 ft 73 kts 160°
2026-04-24 13:04 53.49784 50.18086 417 ft 53 kts 160°
2026-04-24 13:04 53.49513 50.18247 409 ft 32 kts 160°
2026-04-24 13:05 53.49390 50.18317 409 ft 12 kts 169°
2026-04-24 13:05 53.49311 50.18271 408 ft 13 kts 229°
2026-04-24 13:05 53.49281 50.18129 412 ft 13 kts 258°
2026-04-24 13:05 53.49297 50.17989 412 ft 12 kts 307°
2026-04-24 13:06 53.49368 50.17913 419 ft 12 kts 339°
2026-04-24 13:06 53.49447 50.17865 413 ft 13 kts 341°
2026-04-24 13:06 53.49536 50.17812 414 ft 14 kts 340°
2026-04-24 13:06 53.49625 50.17759 417 ft 13 kts 340°
2026-04-24 13:07 53.49719 50.17702 412 ft 15 kts 340°
2026-04-24 13:07 53.49819 50.17643 417 ft 15 kts 341°
2026-04-24 13:07 53.49923 50.17581 412 ft 17 kts 340°
2026-04-24 13:07 53.50036 50.17513 414 ft 17 kts 340°
2026-04-24 13:08 53.50145 50.17447 417 ft 16 kts 340°
2026-04-24 13:08 53.50249 50.17384 423 ft 16 kts 340°
2026-04-24 13:08 53.50351 50.17323 421 ft 16 kts 340°
2026-04-24 13:09 53.50555 50.17202 421 ft 15 kts 341°
2026-04-24 13:09 53.50651 50.17146 421 ft 14 kts 341°
2026-04-24 13:09 53.50743 50.17090 435 ft 14 kts 340°
2026-04-24 13:09 53.50830 50.17036 448 ft 13 kts 332°
2026-04-24 13:10 53.50885 50.16921 465 ft 13 kts 302°
2026-04-24 13:10 53.50931 50.16796 467 ft 13 kts 302°
2026-04-24 13:10 53.50977 50.16672 466 ft 12 kts 301°
2026-04-24 13:10 53.51030 50.16526 461 ft 18 kts 301°
2026-04-24 13:11 53.51105 50.16319 447 ft 14 kts 301°
2026-04-24 13:11 53.51142 50.16215 440 ft 1 kts 300°
2026-04-24 13:11 53.51152 50.16174 435 ft 6 kts 281°
2026-04-24 13:11 53.51159 50.16106 442 ft 7 kts 306°
2026-04-24 13:12 53.51201 50.16060 436 ft 7 kts 331°
2026-04-24 13:12 53.51211 50.16050 439 ft 0 kts 331°